Time,TemperatureF,DewpointF,PressureIn,WindDirection,WindDirectionDegrees,WindSpeedMPH,WindSpeedGustMPH,Humidity,HourlyPrecipIn,Conditions,Clouds,dailyrainin,SoftwareType,DateUTC
2013-10-20 00:01:00,45.8,37.4,29.62,SSE,161,0.0,0.0,72,0.00,,,0.00,WSDL version 423,2013-10-20 05:01:00,
2013-10-20 00:06:00,45.8,37.5,29.62,SSW,212,0.0,0.0,72,0.00,,,0.00,WSDL version 423,2013-10-20 05:06:00,
2013-10-20 00:11:00,45.8,37.5,29.62,SSE,163,0.0,0.0,72,0.00,,,0.00,WSDL version 423,2013-10-20 05:11:00,
2013-10-20 00:16:00,45.8,37.5,29.62,SE,132,0.0,0.0,72,0.00,,,0.00,WSDL version 423,2013-10-20 05:16:00,
2013-10-20 00:21:00,45.8,37.5,29.62,South,173,0.0,0.0,72,0.00,,,0.00,WSDL version 423,2013-10-20 05:21:00,
2013-10-20 00:26:00,45.7,37.3,29.62,South,177,0.0,0.0,72,0.00,,,0.00,WSDL version 423,2013-10-20 05:26:00,
2013-10-20 00:31:00,45.5,37.2,29.62,SSE,158,0.0,0.0,72,0.00,,,0.00,WSDL version 423,2013-10-20 05:31:00,
2013-10-20 00:36:00,45.5,37.3,29.62,SSE,158,0.0,0.0,72,0.00,,,0.00,WSDL version 423,2013-10-20 05:36:00,
2013-10-20 00:41:00,45.4,37.3,29.62,SSW,203,0.0,0.0,73,0.00,,,0.00,WSDL version 423,2013-10-20 05:41:00,
2013-10-20 00:46:00,45.3,37.3,29.62,South,180,0.0,0.0,73,0.00,,,0.00,WSDL version 423,2013-10-20 05:46:00,
2013-10-20 00:51:00,45.3,37.3,29.62,South,180,0.0,0.0,73,0.00,,,0.00,WSDL version 423,2013-10-20 05:51:00,
2013-10-20 00:56:00,45.3,37.3,29.62,SSE,158,0.0,0.0,73,0.00,,,0.00,WSDL version 423,2013-10-20 05:56:00,
2013-10-20 01:01:00,45.2,37.4,29.62,SSE,153,0.0,0.0,74,0.00,,,0.00,WSDL version 423,2013-10-20 06:01:00,
2013-10-20 01:06:00,45.2,37.5,29.62,South,177,0.0,0.0,74,0.00,,,0.00,WSDL version 423,2013-10-20 06:06:00,
2013-10-20 01:11:00,45.1,37.4,29.62,SSE,158,0.0,0.0,74,0.00,,,0.00,WSDL version 423,2013-10-20 06:11:00,
2013-10-20 01:16:00,45.1,37.4,29.62,South,180,0.0,0.0,74,0.00,,,0.00,WSDL version 423,2013-10-20 06:16:00,
2013-10-20 01:21:00,44.9,37.3,29.62,SSE,158,0.0,0.0,74,0.00,,,0.00,WSDL version 423,2013-10-20 06:21:00,
2013-10-20 01:26:00,44.9,37.4,29.62,SSE,158,0.0,0.0,75,0.00,,,0.00,WSDL version 423,2013-10-20 06:26:00,
2013-10-20 01:31:00,44.8,37.4,29.62,SSE,158,0.0,0.0,75,0.00,,,0.00,WSDL version 423,2013-10-20 06:31:00,
2013-10-20 01:36:00,44.6,37.3,29.62,SSE,158,0.0,0.0,75,0.00,,,0.00,WSDL version 423,2013-10-20 06:36:00,
2013-10-20 01:41:00,44.5,37.2,29.62,SSE,158,0.0,0.0,75,0.00,,,0.00,WSDL version 423,2013-10-20 06:41:00,
2013-10-20 01:46:00,44.3,37.1,29.62,SSE,158,0.0,0.0,76,0.00,,,0.00,WSDL version 423,2013-10-20 06:46:00,
2013-10-20 01:51:00,44.2,37.2,29.62,SSE,158,0.0,0.0,76,0.00,,,0.00,WSDL version 423,2013-10-20 06:51:00,
2013-10-20 01:56:00,44.1,37.1,29.62,SSE,158,0.0,0.0,76,0.00,,,0.00,WSDL version 423,2013-10-20 06:56:00,
2013-10-20 02:01:00,44.0,37.1,29.62,SSE,158,0.0,0.0,77,0.00,,,0.00,WSDL version 423,2013-10-20 07:01:00,
2013-10-20 02:06:00,44.0,37.2,29.62,SSE,158,0.0,0.0,77,0.00,,,0.00,WSDL version 423,2013-10-20 07:06:00,
2013-10-20 02:11:00,43.9,37.1,29.62,SSE,158,0.0,0.0,77,0.00,,,0.00,WSDL version 423,2013-10-20 07:11:00,
2013-10-20 02:16:00,43.9,37.1,29.62,SSE,158,0.0,0.0,77,0.00,,,0.00,WSDL version 423,2013-10-20 07:16:00,
2013-10-20 02:21:00,43.8,37.1,29.62,SSE,158,0.0,0.0,77,0.00,,,0.00,WSDL version 423,2013-10-20 07:21:00,
2013-10-20 02:26:00,43.7,37.0,29.62,SSE,158,0.0,0.0,77,0.00,,,0.00,WSDL version 423,2013-10-20 07:26:00,
2013-10-20 02:31:00,43.5,36.8,29.62,SSE,158,0.0,0.0,77,0.00,,,0.00,WSDL version 423,2013-10-20 07:31:00,
2013-10-20 02:36:00,43.5,37.1,29.62,SSE,158,0.0,0.0,78,0.00,,,0.00,WSDL version 423,2013-10-20 07:36:00,
2013-10-20 02:41:00,43.5,37.1,29.62,SSE,158,0.0,0.0,78,0.00,,,0.00,WSDL version 423,2013-10-20 07:41:00,
2013-10-20 02:46:00,43.4,37.1,29.62,SSE,158,0.0,0.0,79,0.00,,,0.00,WSDL version 423,2013-10-20 07:46:00,
2013-10-20 02:51:00,43.3,37.2,29.62,SSE,158,0.0,0.0,79,0.00,,,0.00,WSDL version 423,2013-10-20 07:51:00,
2013-10-20 02:56:00,43.3,37.1,29.62,SSE,158,0.0,0.0,79,0.00,,,0.00,WSDL version 423,2013-10-20 07:56:00,
2013-10-20 03:01:00,43.1,37.0,29.59,SSE,158,0.0,0.0,79,0.00,,,0.00,WSDL version 423,2013-10-20 08:01:00,
2013-10-20 03:06:00,43.1,37.0,29.59,SSE,158,0.0,0.0,79,0.00,,,0.00,WSDL version 423,2013-10-20 08:06:00,
2013-10-20 03:11:00,43.1,37.0,29.59,SSE,158,0.0,0.0,79,0.00,,,0.00,WSDL version 423,2013-10-20 08:11:00,
2013-10-20 03:16:00,43.1,37.0,29.62,SSE,158,0.0,0.0,79,0.00,,,0.00,WSDL version 423,2013-10-20 08:16:00,
2013-10-20 03:21:00,43.1,37.3,29.62,South,180,0.0,0.0,80,0.00,,,0.00,WSDL version 423,2013-10-20 08:21:00,
2013-10-20 03:31:00,43.3,37.5,29.62,SSE,164,0.0,0.0,80,0.00,,,0.00,WSDL version 423,2013-10-20 08:31:00,
2013-10-20 03:36:00,43.3,37.5,29.62,South,180,0.0,0.0,80,0.00,,,0.00,WSDL version 423,2013-10-20 08:36:00,
2013-10-20 03:41:00,43.3,37.5,29.62,SSE,150,0.0,0.0,80,0.00,,,0.00,WSDL version 423,2013-10-20 08:41:00,
2013-10-20 03:46:00,43.3,37.8,29.59,SE,128,0.0,0.0,81,0.00,,,0.00,WSDL version 423,2013-10-20 08:46:00,
2013-10-20 03:51:00,43.3,37.8,29.59,SSE,158,0.0,0.0,81,0.00,,,0.00,WSDL version 423,2013-10-20 08:51:00,
2013-10-20 03:56:00,43.3,37.8,29.59,SE,135,0.0,0.0,81,0.00,,,0.00,WSDL version 423,2013-10-20 08:56:00,
2013-10-20 04:01:00,43.1,37.6,29.62,SSE,158,0.0,0.0,81,0.00,,,0.00,WSDL version 423,2013-10-20 09:01:00,
2013-10-20 04:06:00,43.1,37.6,29.62,South,170,0.0,0.0,81,0.00,,,0.00,WSDL version 423,2013-10-20 09:06:00,
2013-10-20 04:11:00,43.1,37.5,29.62,SSE,155,0.0,0.0,80,0.00,,,0.00,WSDL version 423,2013-10-20 09:11:00,
2013-10-20 04:16:00,43.1,37.4,29.59,SSE,158,0.0,0.0,80,0.00,,,0.00,WSDL version 423,2013-10-20 09:16:00,
2013-10-20 04:21:00,43.1,37.4,29.59,SSE,158,0.0,0.0,80,0.00,,,0.00,WSDL version 423,2013-10-20 09:21:00,
2013-10-20 04:26:00,43.0,37.2,29.59,SSE,158,0.0,0.0,80,0.00,,,0.00,WSDL version 423,2013-10-20 09:26:00,
2013-10-20 04:31:00,43.0,37.2,29.59,SSE,158,0.0,0.0,80,0.00,,,0.00,WSDL version 423,2013-10-20 09:31:00,
2013-10-20 04:36:00,43.0,37.2,29.59,SSE,158,0.0,0.0,80,0.00,,,0.00,WSDL version 423,2013-10-20 09:36:00,
2013-10-20 04:41:00,43.0,37.2,29.59,SE,135,0.0,0.0,80,0.00,,,0.00,WSDL version 423,2013-10-20 09:41:00,
2013-10-20 04:46:00,42.9,37.2,29.59,SSE,149,0.0,0.0,80,0.00,,,0.00,WSDL version 423,2013-10-20 09:46:00,
2013-10-20 04:51:00,42.8,37.0,29.59,SSE,158,0.0,0.0,80,0.00,,,0.00,WSDL version 423,2013-10-20 09:51:00,
2013-10-20 04:56:00,42.8,37.0,29.59,SSE,158,0.0,0.0,80,0.00,,,0.00,WSDL version 423,2013-10-20 09:56:00,
2013-10-20 05:01:00,42.8,37.1,29.62,SSE,154,0.0,0.0,81,0.00,,,0.00,WSDL version 423,2013-10-20 10:01:00,
2013-10-20 05:06:00,42.8,37.4,29.62,South,180,0.0,0.0,81,0.00,,,0.00,WSDL version 423,2013-10-20 10:06:00,
2013-10-20 05:11:00,42.8,37.4,29.62,SE,135,0.0,0.0,81,0.00,,,0.00,WSDL version 423,2013-10-20 10:11:00,
2013-10-20 05:16:00,42.8,37.4,29.62,SE,135,0.0,0.0,81,0.00,,,0.00,WSDL version 423,2013-10-20 10:16:00,
2013-10-20 05:21:00,42.8,37.4,29.62,SSW,193,0.0,0.0,81,0.00,,,0.00,WSDL version 423,2013-10-20 10:21:00,
2013-10-20 05:26:00,42.8,37.4,29.62,South,173,0.0,0.0,81,0.00,,,0.00,WSDL version 423,2013-10-20 10:26:00,
2013-10-20 05:31:00,42.8,37.6,29.62,SSE,158,0.0,0.0,82,0.00,,,0.00,WSDL version 423,2013-10-20 10:31:00,
2013-10-20 05:36:00,42.8,37.7,29.62,SSE,158,0.0,0.0,82,0.00,,,0.00,WSDL version 423,2013-10-20 10:36:00,
2013-10-20 05:41:00,42.7,37.7,29.62,SSE,167,0.0,0.0,82,0.00,,,0.00,WSDL version 423,2013-10-20 10:41:00,
2013-10-20 05:46:00,42.8,37.7,29.62,SSE,163,0.0,0.0,82,0.00,,,0.00,WSDL version 423,2013-10-20 10:46:00,
2013-10-20 05:51:00,42.8,38.0,29.62,SSE,149,0.0,0.0,83,0.00,,,0.00,WSDL version 423,2013-10-20 10:51:00,
2013-10-20 05:56:00,42.8,38.1,29.62,SSE,158,0.0,0.0,83,0.00,,,0.00,WSDL version 423,2013-10-20 10:56:00,
2013-10-20 06:01:00,42.8,38.1,29.62,SE,135,0.0,0.0,83,0.00,,,0.00,WSDL version 423,2013-10-20 11:01:00,
2013-10-20 06:06:00,42.8,38.1,29.62,SE,135,0.0,0.0,83,0.00,,,0.00,WSDL version 423,2013-10-20 11:06:00,
2013-10-20 06:11:00,42.8,38.1,29.62,SSE,154,0.0,0.0,83,0.00,,,0.00,WSDL version 423,2013-10-20 11:11:00,
2013-10-20 06:16:00,42.8,38.4,29.62,SSE,158,0.0,0.0,84,0.00,,,0.00,WSDL version 423,2013-10-20 11:16:00,
2013-10-20 06:21:00,42.7,38.3,29.62,South,177,0.0,0.0,84,0.00,,,0.00,WSDL version 423,2013-10-20 11:21:00,
2013-10-20 06:26:00,42.8,38.4,29.62,SE,135,0.0,0.0,84,0.00,,,0.00,WSDL version 423,2013-10-20 11:26:00,
2013-10-20 06:31:00,42.8,38.4,29.62,SSE,158,0.0,0.0,84,0.00,,,0.00,WSDL version 423,2013-10-20 11:31:00,
2013-10-20 06:36:00,42.7,38.3,29.62,SSE,158,0.0,0.0,84,0.00,,,0.00,WSDL version 423,2013-10-20 11:36:00,
2013-10-20 06:41:00,42.6,38.2,29.62,SSE,158,0.0,0.0,84,0.00,,,0.00,WSDL version 423,2013-10-20 11:41:00,
2013-10-20 06:46:00,42.6,38.2,29.62,SSE,158,0.0,0.0,84,0.00,,,0.00,WSDL version 423,2013-10-20 11:46:00,
2013-10-20 06:51:00,42.6,38.2,29.62,SSE,158,0.0,0.0,84,0.00,,,0.00,WSDL version 423,2013-10-20 11:51:00,
2013-10-20 06:56:00,42.6,38.2,29.62,South,183,0.0,0.0,84,0.00,,,0.00,WSDL version 423,2013-10-20 11:56:00,
2013-10-20 07:01:00,42.6,38.2,29.62,South,174,0.0,0.0,84,0.00,,,0.00,WSDL version 423,2013-10-20 12:01:00,
2013-10-20 07:06:00,42.6,38.3,29.62,SSE,158,0.0,0.0,84,0.00,,,0.00,WSDL version 423,2013-10-20 12:06:00,
2013-10-20 07:11:00,42.8,38.8,29.62,SSE,161,0.0,0.0,86,0.00,,,0.00,WSDL version 423,2013-10-20 12:11:00,
2013-10-20 07:16:00,42.8,38.8,29.65,SW,214,0.0,0.0,86,0.00,,,0.00,WSDL version 423,2013-10-20 12:16:00,
2013-10-20 07:21:00,43.0,38.9,29.65,SE,135,0.0,0.0,86,0.00,,,0.00,WSDL version 423,2013-10-20 12:21:00,
2013-10-20 07:26:00,43.0,38.9,29.65,South,174,0.0,0.0,86,0.00,,,0.00,WSDL version 423,2013-10-20 12:26:00,
2013-10-20 07:31:00,43.1,39.1,29.65,SSE,158,0.0,0.0,86,0.00,,,0.00,WSDL version 423,2013-10-20 12:31:00,
2013-10-20 07:36:00,43.2,39.3,29.65,SSE,164,0.0,0.0,87,0.00,,,0.00,WSDL version 423,2013-10-20 12:36:00,
2013-10-20 07:41:00,43.4,39.6,29.65,SE,146,0.0,0.0,86,0.00,,,0.00,WSDL version 423,2013-10-20 12:41:00,
2013-10-20 07:46:00,43.6,39.7,29.65,SSE,158,0.0,0.0,87,0.00,,,0.00,WSDL version 423,2013-10-20 12:46:00,
2013-10-20 07:51:00,43.9,40.1,29.65,SE,139,0.0,0.0,87,0.00,,,0.00,WSDL version 423,2013-10-20 12:51:00,
2013-10-20 07:56:00,44.1,40.4,29.65,South,174,0.0,0.0,87,0.00,,,0.00,WSDL version 423,2013-10-20 12:56:00,
2013-10-20 08:01:00,44.5,40.8,29.65,SE,140,0.0,0.0,87,0.00,,,0.00,WSDL version 423,2013-10-20 13:01:00,
2013-10-20 08:06:00,44.7,41.3,29.65,SSE,158,0.0,0.0,88,0.00,,,0.00,WSDL version 423,2013-10-20 13:06:00,
2013-10-20 08:11:00,45.0,41.6,29.65,SSE,162,0.0,0.0,88,0.00,,,0.00,WSDL version 423,2013-10-20 13:11:00,
2013-10-20 08:16:00,45.5,42.0,29.65,SE,141,0.0,0.0,88,0.00,,,0.00,WSDL version 423,2013-10-20 13:16:00,
2013-10-20 08:21:00,45.9,42.5,29.65,SSE,167,0.0,0.0,88,0.00,,,0.00,WSDL version 423,2013-10-20 13:21:00,
2013-10-20 08:26:00,46.4,43.0,29.65,SE,143,0.0,0.0,88,0.00,,,0.00,WSDL version 423,2013-10-20 13:26:00,
2013-10-20 08:31:00,46.8,43.0,29.65,South,183,0.0,0.0,87,0.00,,,0.00,WSDL version 423,2013-10-20 13:31:00,
2013-10-20 08:36:00,47.2,43.3,29.65,South,173,0.0,0.0,86,0.00,,,0.00,WSDL version 423,2013-10-20 13:36:00,
2013-10-20 08:46:00,48.3,43.9,29.65,SSE,164,0.0,0.0,84,0.00,,,0.00,WSDL version 423,2013-10-20 13:46:00,
2013-10-20 08:51:00,48.7,43.8,29.65,SSE,161,0.0,0.0,82,0.00,,,0.00,WSDL version 423,2013-10-20 13:51:00,
2013-10-20 08:56:00,49.3,44.0,29.65,ESE,116,0.0,0.0,81,0.00,,,0.00,WSDL version 423,2013-10-20 13:56:00,
2013-10-20 09:01:00,50.1,44.3,29.65,SSE,158,0.0,0.0,81,0.00,,,0.00,WSDL version 423,2013-10-20 14:01:00,
2013-10-20 09:06:00,50.9,45.0,29.65,SSE,153,0.0,0.0,80,0.00,,,0.00,WSDL version 423,2013-10-20 14:06:00,
2013-10-20 09:11:00,51.6,45.0,29.65,SSW,206,0.0,0.0,76,0.00,,,0.00,WSDL version 423,2013-10-20 14:11:00,
2013-10-20 09:16:00,52.9,45.2,29.68,SW,231,0.0,0.0,74,0.00,,,0.00,WSDL version 423,2013-10-20 14:16:00,
2013-10-20 09:21:00,54.2,45.3,29.68,SE,141,0.0,0.0,71,0.00,,,0.00,WSDL version 423,2013-10-20 14:21:00,
2013-10-20 09:26:00,55.2,44.9,29.68,SE,132,0.0,0.0,64,0.00,,,0.00,WSDL version 423,2013-10-20 14:26:00,
2013-10-20 09:31:00,56.4,44.1,29.65,ESE,104,0.0,0.0,62,0.00,,,0.00,WSDL version 423,2013-10-20 14:31:00,
2013-10-20 09:36:00,57.0,42.5,29.65,SE,128,0.0,0.0,56,0.00,,,0.00,WSDL version 423,2013-10-20 14:36:00,
2013-10-20 09:41:00,57.2,41.2,29.65,South,171,0.0,0.0,54,0.00,,,0.00,WSDL version 423,2013-10-20 14:41:00,
2013-10-20 09:46:00,58.7,43.0,29.65,SSE,151,0.0,0.0,55,0.00,,,0.00,WSDL version 423,2013-10-20 14:46:00,
2013-10-20 09:51:00,59.7,43.1,29.65,SE,140,0.0,0.0,54,0.00,,,0.00,WSDL version 423,2013-10-20 14:51:00,
2013-10-20 09:56:00,60.5,43.0,29.65,SSE,158,0.0,0.0,52,0.00,,,0.00,WSDL version 423,2013-10-20 14:56:00,
2013-10-20 10:01:00,61.2,42.3,29.68,SSE,155,0.0,0.0,50,0.00,,,0.00,WSDL version 423,2013-10-20 15:01:00,
2013-10-20 10:06:00,61.7,41.9,29.68,South,173,0.0,0.0,47,0.00,,,0.00,WSDL version 423,2013-10-20 15:06:00,
2013-10-20 10:11:00,61.9,39.8,29.68,South,180,0.0,0.0,44,0.00,,,0.00,WSDL version 423,2013-10-20 15:11:00,
2013-10-20 10:16:00,62.7,40.7,29.65,South,186,0.0,0.0,44,0.00,,,0.00,WSDL version 423,2013-10-20 15:16:00,
2013-10-20 10:21:00,62.9,39.5,29.65,SSW,203,0.0,0.0,41,0.00,,,0.00,WSDL version 423,2013-10-20 15:21:00,
2013-10-20 10:26:00,63.2,39.0,29.65,SE,135,0.0,0.0,41,0.00,,,0.00,WSDL version 423,2013-10-20 15:26:00,
2013-10-20 10:31:00,63.9,39.4,29.68,SSW,195,0.0,0.0,40,0.00,,,0.00,WSDL version 423,2013-10-20 15:31:00,
2013-10-20 10:36:00,64.6,40.0,29.68,SSE,158,0.0,0.0,40,0.00,,,0.00,WSDL version 423,2013-10-20 15:36:00,
2013-10-20 10:41:00,64.9,39.5,29.68,South,177,0.0,0.0,38,0.00,,,0.00,WSDL version 423,2013-10-20 15:41:00,
2013-10-20 10:46:00,65.1,37.5,29.68,SW,225,0.0,0.0,34,0.00,,,0.00,WSDL version 423,2013-10-20 15:46:00,
2013-10-20 10:51:00,65.5,36.4,29.68,SSW,203,0.0,0.0,34,0.00,,,0.00,WSDL version 423,2013-10-20 15:51:00,
2013-10-20 10:56:00,66.2,37.4,29.68,South,186,0.0,0.0,35,0.00,,,0.00,WSDL version 423,2013-10-20 15:56:00,
2013-10-20 11:01:00,66.7,36.3,29.68,SE,143,0.0,0.0,32,0.00,,,0.00,WSDL version 423,2013-10-20 16:01:00,
2013-10-20 11:06:00,66.5,35.7,29.68,South,190,0.0,0.0,32,0.00,,,0.00,WSDL version 423,2013-10-20 16:06:00,
2013-10-20 11:11:00,66.8,35.4,29.68,South,185,0.0,0.0,31,0.00,,,0.00,WSDL version 423,2013-10-20 16:11:00,
2013-10-20 11:16:00,67.4,36.0,29.65,SW,233,0.0,0.0,31,0.00,,,0.00,WSDL version 423,2013-10-20 16:16:00,
2013-10-20 11:21:00,68.0,36.3,29.65,South,186,0.0,0.0,31,0.00,,,0.00,WSDL version 423,2013-10-20 16:21:00,
2013-10-20 11:26:00,68.4,36.4,29.65,South,191,0.0,0.0,30,0.00,,,0.00,WSDL version 423,2013-10-20 16:26:00,
2013-10-20 11:31:00,68.8,36.3,29.65,South,177,0.0,0.0,30,0.00,,,0.00,WSDL version 423,2013-10-20 16:31:00,
2013-10-20 11:41:00,68.5,35.4,29.65,South,173,0.0,0.0,29,0.00,,,0.00,WSDL version 423,2013-10-20 16:41:00,
2013-10-20 11:46:00,68.8,35.3,29.65,ESE,122,0.0,0.0,29,0.00,,,0.00,WSDL version 423,2013-10-20 16:46:00,
2013-10-20 11:51:00,69.3,35.9,29.65,West,267,0.0,0.0,29,0.00,,,0.00,WSDL version 423,2013-10-20 16:51:00,
2013-10-20 11:56:00,69.5,35.9,29.65,SE,146,0.0,0.0,29,0.00,,,0.00,WSDL version 423,2013-10-20 16:56:00,
2013-10-20 12:01:00,69.5,35.9,29.65,SW,221,0.0,0.0,29,0.00,,,0.00,WSDL version 423,2013-10-20 17:01:00,
2013-10-20 12:06:00,70.1,36.4,29.65,SSE,163,0.0,0.0,29,0.00,,,0.00,WSDL version 423,2013-10-20 17:06:00,
2013-10-20 12:11:00,70.6,36.2,29.65,SSE,158,0.0,0.0,28,0.00,,,0.00,WSDL version 423,2013-10-20 17:11:00,
2013-10-20 12:16:00,70.5,36.1,29.65,SSE,153,0.0,0.0,28,0.00,,,0.00,WSDL version 423,2013-10-20 17:16:00,
2013-10-20 12:21:00,70.8,36.1,29.65,SW,228,0.0,0.0,28,0.00,,,0.00,WSDL version 423,2013-10-20 17:21:00,
2013-10-20 12:26:00,71.5,36.7,29.65,NW,321,0.0,0.0,28,0.00,,,0.00,WSDL version 423,2013-10-20 17:26:00,
2013-10-20 12:31:00,71.3,36.5,29.65,NE,51,0.0,0.0,28,0.00,,,0.00,WSDL version 423,2013-10-20 17:31:00,
2013-10-20 12:36:00,71.5,36.7,29.65,NW,325,0.0,0.0,28,0.00,,,0.00,WSDL version 423,2013-10-20 17:36:00,
2013-10-20 12:41:00,71.4,36.6,29.65,SW,229,0.0,0.0,28,0.00,,,0.00,WSDL version 423,2013-10-20 17:41:00,
2013-10-20 12:46:00,71.4,35.7,29.65,SE,146,0.0,0.0,26,0.00,,,0.00,WSDL version 423,2013-10-20 17:46:00,
2013-10-20 12:51:00,71.5,36.7,29.65,South,174,0.0,0.0,28,0.00,,,0.00,WSDL version 423,2013-10-20 17:51:00,
2013-10-20 12:56:00,71.9,37.1,29.65,SSE,158,0.0,0.0,28,0.00,,,0.00,WSDL version 423,2013-10-20 17:56:00,
2013-10-20 13:01:00,72.2,37.3,29.62,South,184,0.0,0.0,28,0.00,,,0.00,WSDL version 423,2013-10-20 18:01:00,
2013-10-20 13:06:00,72.0,35.8,29.62,WSW,244,0.0,0.0,26,0.00,,,0.00,WSDL version 423,2013-10-20 18:06:00,
2013-10-20 13:11:00,72.6,35.9,29.62,South,188,0.0,0.0,25,0.00,,,0.00,WSDL version 423,2013-10-20 18:11:00,
2013-10-20 13:16:00,72.3,34.5,29.62,SE,143,0.0,0.0,25,0.00,,,0.00,WSDL version 423,2013-10-20 18:16:00,
2013-10-20 13:21:00,72.1,35.4,29.62,South,190,0.0,0.0,26,0.00,,,0.00,WSDL version 423,2013-10-20 18:21:00,
2013-10-20 13:26:00,72.4,35.4,29.62,SW,221,0.0,0.0,25,0.00,,,0.00,WSDL version 423,2013-10-20 18:26:00,
2013-10-20 13:31:00,72.7,36.0,29.62,South,173,0.0,0.0,25,0.00,,,0.00,WSDL version 423,2013-10-20 18:31:00,
2013-10-20 13:36:00,72.3,34.6,29.62,ESE,120,0.0,0.0,25,0.00,,,0.00,WSDL version 423,2013-10-20 18:36:00,
2013-10-20 13:41:00,72.2,35.0,29.62,SSE,149,0.0,0.0,26,0.00,,,0.00,WSDL version 423,2013-10-20 18:41:00,
2013-10-20 13:46:00,71.9,35.2,29.59,SE,141,0.0,0.0,26,0.00,,,0.00,WSDL version 423,2013-10-20 18:46:00,
2013-10-20 13:51:00,72.0,35.3,29.59,SW,225,0.0,0.0,26,0.00,,,0.00,WSDL version 423,2013-10-20 18:51:00,
2013-10-20 13:56:00,72.5,34.7,29.59,SW,221,0.0,0.0,25,0.00,,,0.00,WSDL version 423,2013-10-20 18:56:00,
2013-10-20 14:01:00,72.3,34.8,29.59,South,186,0.0,0.0,26,0.00,,,0.00,WSDL version 423,2013-10-20 19:01:00,
2013-10-20 14:06:00,72.0,34.4,29.59,South,180,0.0,0.0,25,0.00,,,0.00,WSDL version 423,2013-10-20 19:06:00,
2013-10-20 14:11:00,71.9,34.2,29.59,SSW,212,0.0,0.0,26,0.00,,,0.00,WSDL version 423,2013-10-20 19:11:00,
2013-10-20 14:16:00,71.8,33.5,29.59,South,174,0.0,0.0,23,0.00,,,0.00,WSDL version 423,2013-10-20 19:16:00,
2013-10-20 14:21:00,71.4,31.7,29.59,SSW,199,0.0,0.0,23,0.00,,,0.00,WSDL version 423,2013-10-20 19:21:00,
2013-10-20 14:26:00,71.5,32.6,29.59,South,170,0.0,0.0,23,0.00,,,0.00,WSDL version 423,2013-10-20 19:26:00,
2013-10-20 14:31:00,71.5,33.3,29.59,SSW,198,0.0,0.0,23,0.00,,,0.00,WSDL version 423,2013-10-20 19:31:00,
2013-10-20 14:36:00,71.4,31.7,29.59,South,186,0.0,0.0,23,0.00,,,0.00,WSDL version 423,2013-10-20 19:36:00,
2013-10-20 14:41:00,71.4,31.7,29.59,South,180,0.0,0.0,23,0.00,,,0.00,WSDL version 423,2013-10-20 19:41:00,
2013-10-20 14:46:00,71.3,31.6,29.59,SSE,158,0.0,0.0,23,0.00,,,0.00,WSDL version 423,2013-10-20 19:46:00,
2013-10-20 14:51:00,71.3,32.2,29.59,SSE,167,0.0,0.0,23,0.00,,,0.00,WSDL version 423,2013-10-20 19:51:00,
2013-10-20 14:56:00,71.5,34.3,29.59,SW,215,0.0,0.0,25,0.00,,,0.00,WSDL version 423,2013-10-20 19:56:00,
2013-10-20 15:01:00,71.7,31.9,29.59,SW,234,0.0,0.0,23,0.00,,,0.00,WSDL version 423,2013-10-20 20:01:00,
2013-10-20 15:06:00,71.6,31.9,29.59,SSW,194,0.0,0.0,23,0.00,,,0.00,WSDL version 423,2013-10-20 20:06:00,
2013-10-20 15:11:00,71.4,31.7,29.59,SSE,154,0.0,0.0,23,0.00,,,0.00,WSDL version 423,2013-10-20 20:11:00,
2013-10-20 15:16:00,70.9,31.3,29.59,SSW,212,0.0,0.0,23,0.00,,,0.00,WSDL version 423,2013-10-20 20:16:00,
2013-10-20 15:21:00,70.7,31.1,29.59,South,174,0.0,0.0,23,0.00,,,0.00,WSDL version 423,2013-10-20 20:21:00,
2013-10-20 15:26:00,70.6,31.0,29.59,ESE,119,0.0,0.0,23,0.00,,,0.00,WSDL version 423,2013-10-20 20:26:00,
2013-10-20 15:31:00,70.9,31.3,29.59,SSE,163,0.0,0.0,23,0.00,,,0.00,WSDL version 423,2013-10-20 20:31:00,
2013-10-20 15:36:00,70.6,31.0,29.59,SSW,195,0.0,0.0,23,0.00,,,0.00,WSDL version 423,2013-10-20 20:36:00,
2013-10-20 15:41:00,70.4,30.8,29.59,SSW,205,0.0,0.0,23,0.00,,,0.00,WSDL version 423,2013-10-20 20:41:00,
2013-10-20 15:46:00,70.1,30.7,29.59,NNW,338,0.0,0.0,23,0.00,,,0.00,WSDL version 423,2013-10-20 20:46:00,
2013-10-20 15:51:00,70.2,30.7,29.59,South,177,0.0,0.0,23,0.00,,,0.00,WSDL version 423,2013-10-20 20:51:00,
2013-10-20 15:56:00,70.2,31.7,29.59,SSW,205,0.0,0.0,25,0.00,,,0.00,WSDL version 423,2013-10-20 20:56:00,
2013-10-20 16:01:00,70.0,30.5,29.56,SW,219,0.0,0.0,23,0.00,,,0.00,WSDL version 423,2013-10-20 21:01:00,
2013-10-20 16:06:00,70.0,31.1,29.56,West,270,0.0,0.0,26,0.00,,,0.00,WSDL version 423,2013-10-20 21:06:00,
2013-10-20 16:11:00,70.0,31.6,29.56,SSW,209,0.0,0.0,23,0.00,,,0.00,WSDL version 423,2013-10-20 21:11:00,
2013-10-20 16:16:00,69.6,30.2,29.59,SW,221,0.0,0.0,23,0.00,,,0.00,WSDL version 423,2013-10-20 21:16:00,
2013-10-20 16:21:00,69.3,30.0,29.59,SW,236,0.0,0.0,23,0.00,,,0.00,WSDL version 423,2013-10-20 21:21:00,
2013-10-20 16:26:00,69.2,31.1,29.59,SSE,158,0.0,0.0,25,0.00,,,0.00,WSDL version 423,2013-10-20 21:26:00,
2013-10-20 16:31:00,69.2,32.9,29.59,East,93,0.0,0.0,26,0.00,,,0.00,WSDL version 423,2013-10-20 21:31:00,
2013-10-20 16:36:00,69.3,32.4,29.59,ESE,116,0.0,0.0,26,0.00,,,0.00,WSDL version 423,2013-10-20 21:36:00,
2013-10-20 16:41:00,69.8,33.4,29.59,SW,218,0.0,0.0,26,0.00,,,0.00,WSDL version 423,2013-10-20 21:41:00,
2013-10-20 16:46:00,70.2,33.7,29.59,SSW,199,0.0,0.0,26,0.00,,,0.00,WSDL version 423,2013-10-20 21:46:00,
2013-10-20 16:51:00,70.5,34.0,29.59,SSE,163,0.0,0.0,26,0.00,,,0.00,WSDL version 423,2013-10-20 21:51:00,
2013-10-20 16:56:00,70.3,33.8,29.59,SE,138,0.0,0.0,26,0.00,,,0.00,WSDL version 423,2013-10-20 21:56:00,
2013-10-20 17:01:00,68.6,32.4,29.59,SE,141,0.0,0.0,26,0.00,,,0.00,WSDL version 423,2013-10-20 22:01:00,
2013-10-20 17:06:00,68.0,31.8,29.59,SSE,152,0.0,0.0,26,0.00,,,0.00,WSDL version 423,2013-10-20 22:06:00,
2013-10-20 17:11:00,67.3,31.2,29.59,SSW,206,0.0,0.0,26,0.00,,,0.00,WSDL version 423,2013-10-20 22:11:00,
2013-10-20 17:16:00,66.9,31.1,29.56,ESE,118,0.0,0.0,27,0.00,,,0.00,WSDL version 423,2013-10-20 22:16:00,
2013-10-20 17:21:00,66.5,31.6,29.56,SSE,154,0.0,0.0,27,0.00,,,0.00,WSDL version 423,2013-10-20 22:21:00,
2013-10-20 17:26:00,66.1,31.2,29.56,SSE,154,0.0,0.0,27,0.00,,,0.00,WSDL version 423,2013-10-20 22:26:00,
2013-10-20 17:31:00,65.7,32.3,29.56,SSW,206,0.0,0.0,29,0.00,,,0.00,WSDL version 423,2013-10-20 22:31:00,
2013-10-20 17:36:00,65.4,32.4,29.56,SSE,150,0.0,0.0,29,0.00,,,0.00,WSDL version 423,2013-10-20 22:36:00,
2013-10-20 17:41:00,65.1,32.3,29.56,West,270,0.0,0.0,30,0.00,,,0.00,WSDL version 423,2013-10-20 22:41:00,
2013-10-20 17:46:00,64.7,32.6,29.56,South,191,0.0,0.0,30,0.00,,,0.00,WSDL version 423,2013-10-20 22:46:00,
2013-10-20 17:51:00,64.3,32.3,29.56,SE,124,0.0,0.0,30,0.00,,,0.00,WSDL version 423,2013-10-20 22:51:00,
2013-10-20 17:56:00,64.0,32.3,29.56,SW,214,0.0,0.0,31,0.00,,,0.00,WSDL version 423,2013-10-20 22:56:00,
2013-10-20 18:01:00,63.6,32.4,29.59,SE,135,0.0,0.0,31,0.00,,,0.00,WSDL version 423,2013-10-20 23:01:00,
2013-10-20 18:06:00,63.1,32.4,29.59,ESE,113,0.0,0.0,32,-99.99,,,-99.99,WSDL version 423,2013-10-20 23:06:00,
2013-10-20 18:11:00,62.6,32.7,29.59,ESE,113,0.0,0.0,33,-99.99,,,-99.99,WSDL version 423,2013-10-20 23:11:00,
2013-10-20 18:16:00,62.2,32.7,29.56,ESE,113,0.0,0.0,33,-99.99,,,-99.99,WSDL version 423,2013-10-20 23:16:00,
2013-10-20 18:21:00,61.8,33.6,29.56,ESE,113,0.0,0.0,35,-99.99,,,-99.99,WSDL version 423,2013-10-20 23:21:00,
2013-10-20 18:26:00,61.3,34.6,29.56,ESE,113,0.0,0.0,37,-99.99,,,-99.99,WSDL version 423,2013-10-20 23:26:00,
2013-10-20 18:31:00,60.7,35.1,29.56,ESE,113,0.0,0.0,39,-99.99,,,-99.99,WSDL version 423,2013-10-20 23:31:00,
2013-10-20 18:41:00,59.5,35.6,29.56,ESE,113,0.0,0.0,41,-99.99,,,-99.99,WSDL version 423,2013-10-20 23:41:00,
2013-10-20 18:46:00,59.1,35.8,29.59,ESE,113,0.0,0.0,41,-99.99,,,-99.99,WSDL version 423,2013-10-20 23:46:00,
2013-10-20 18:51:00,58.6,35.5,29.59,ESE,113,0.0,0.0,42,-99.99,,,-99.99,WSDL version 423,2013-10-20 23:51:00,
2013-10-20 18:56:00,58.0,35.3,29.59,ESE,113,0.0,0.0,42,-99.99,,,-99.99,WSDL version 423,2013-10-20 23:56:00,
2013-10-20 19:01:00,57.8,35.5,29.56,ESE,113,0.0,0.0,43,-99.99,,,-99.99,WSDL version 423,2013-10-21 00:01:00,
2013-10-20 19:06:00,57.6,35.4,29.56,South,174,0.0,0.0,43,-99.99,,,-99.99,WSDL version 423,2013-10-21 00:06:00,
2013-10-20 19:11:00,57.5,35.4,29.56,SW,225,0.0,0.0,43,-99.99,,,-99.99,WSDL version 423,2013-10-21 00:11:00,
2013-10-20 19:16:00,57.5,35.4,29.59,SW,225,0.0,0.0,43,-99.99,,,-99.99,WSDL version 423,2013-10-21 00:16:00,
2013-10-20 19:21:00,57.4,35.5,29.59,SW,225,0.0,0.0,44,-99.99,,,-99.99,WSDL version 423,2013-10-21 00:21:00,
2013-10-20 19:26:00,57.2,35.6,29.59,SW,225,0.0,0.0,44,-99.99,,,-99.99,WSDL version 423,2013-10-21 00:26:00,
2013-10-20 19:31:00,57.0,35.5,29.59,SW,225,0.0,0.0,44,-99.99,,,-99.99,WSDL version 423,2013-10-21 00:31:00,
2013-10-20 19:36:00,56.8,35.8,29.59,SW,225,0.0,0.0,45,-99.99,,,-99.99,WSDL version 423,2013-10-21 00:36:00,
2013-10-20 19:41:00,56.6,35.9,29.59,SW,225,0.0,0.0,46,-99.99,,,-99.99,WSDL version 423,2013-10-21 00:41:00,
2013-10-20 19:46:00,56.4,35.9,29.59,SW,225,0.0,0.0,46,-99.99,,,-99.99,WSDL version 423,2013-10-21 00:46:00,
2013-10-20 19:51:00,56.1,35.7,29.59,SW,225,0.0,0.0,46,-99.99,,,-99.99,WSDL version 423,2013-10-21 00:51:00,
2013-10-20 19:56:00,56.0,36.1,29.59,SW,225,0.0,0.0,47,-99.99,,,-99.99,WSDL version 423,2013-10-21 00:56:00,
2013-10-20 20:01:00,55.8,36.4,29.59,SW,225,0.0,0.0,48,-99.99,,,-99.99,WSDL version 423,2013-10-21 01:01:00,
2013-10-20 20:06:00,55.6,36.5,29.59,SW,225,0.0,0.0,49,-99.99,,,-99.99,WSDL version 423,2013-10-21 01:06:00,
2013-10-20 20:11:00,55.6,36.6,29.59,SW,225,0.0,0.0,49,-99.99,,,-99.99,WSDL version 423,2013-10-21 01:11:00,
2013-10-20 20:16:00,55.4,36.7,29.59,SW,225,0.0,0.0,50,-99.99,,,-99.99,WSDL version 423,2013-10-21 01:16:00,
2013-10-20 20:21:00,55.2,36.7,29.59,SW,225,0.0,0.0,50,-99.99,,,-99.99,WSDL version 423,2013-10-21 01:21:00,
2013-10-20 20:26:00,55.0,36.9,29.59,SW,225,0.0,0.0,51,-99.99,,,-99.99,WSDL version 423,2013-10-21 01:26:00,
2013-10-20 20:31:00,54.9,36.9,29.59,SW,225,0.0,0.0,51,-99.99,,,-99.99,WSDL version 423,2013-10-21 01:31:00,
2013-10-20 20:36:00,54.8,36.8,29.59,SW,225,0.0,0.0,51,-99.99,,,-99.99,WSDL version 423,2013-10-21 01:36:00,
2013-10-20 20:41:00,54.6,36.7,29.59,SW,225,0.0,0.0,52,-99.99,,,-99.99,WSDL version 423,2013-10-21 01:41:00,
2013-10-20 20:46:00,54.4,36.9,29.59,SW,225,0.0,0.0,52,-99.99,,,-99.99,WSDL version 423,2013-10-21 01:46:00,
2013-10-20 20:51:00,54.2,37.0,29.59,SW,225,0.0,0.0,52,-99.99,,,-99.99,WSDL version 423,2013-10-21 01:51:00,
2013-10-20 20:56:00,54.0,37.0,29.59,SW,225,0.0,0.0,52,-99.99,,,-99.99,WSDL version 423,2013-10-21 01:56:00,
2013-10-20 21:01:00,53.9,37.0,29.59,SW,225,0.0,0.0,53,-99.99,,,-99.99,WSDL version 423,2013-10-21 02:01:00,
2013-10-20 21:06:00,53.5,37.0,29.59,SW,225,0.0,0.0,53,-99.99,,,-99.99,WSDL version 423,2013-10-21 02:06:00,
2013-10-20 21:11:00,53.3,36.9,29.59,SW,225,0.0,0.0,54,-99.99,,,-99.99,WSDL version 423,2013-10-21 02:11:00,
2013-10-20 21:16:00,53.0,36.9,29.59,SW,225,0.0,0.0,54,-99.99,,,-99.99,WSDL version 423,2013-10-21 02:16:00,
2013-10-20 21:21:00,52.7,36.8,29.59,SW,225,0.0,0.0,55,-99.99,,,-99.99,WSDL version 423,2013-10-21 02:21:00,
2013-10-20 21:26:00,52.5,36.9,29.59,SW,225,0.0,0.0,55,-99.99,,,-99.99,WSDL version 423,2013-10-21 02:26:00,
2013-10-20 21:31:00,52.4,37.0,29.59,SW,225,0.0,0.0,56,-99.99,,,-99.99,WSDL version 423,2013-10-21 02:31:00,
2013-10-20 21:36:00,52.1,37.0,29.59,SW,225,0.0,0.0,57,-99.99,,,-99.99,WSDL version 423,2013-10-21 02:36:00,
2013-10-20 21:41:00,51.7,37.0,29.59,SW,225,0.0,0.0,57,-99.99,,,-99.99,WSDL version 423,2013-10-21 02:41:00,
2013-10-20 21:46:00,51.4,37.1,29.59,SW,225,0.0,0.0,58,-99.99,,,-99.99,WSDL version 423,2013-10-21 02:46:00,
2013-10-20 21:51:00,51.2,36.9,29.59,SW,225,0.0,0.0,58,-99.99,,,-99.99,WSDL version 423,2013-10-21 02:51:00,
2013-10-20 21:56:00,51.2,37.2,29.59,SW,225,0.0,0.0,59,-99.99,,,-99.99,WSDL version 423,2013-10-21 02:56:00,
2013-10-20 22:01:00,51.2,37.3,29.59,SW,225,0.0,0.0,59,-99.99,,,-99.99,WSDL version 423,2013-10-21 03:01:00,
2013-10-20 22:06:00,51.2,37.3,29.59,SW,225,0.0,0.0,59,-99.99,,,-99.99,WSDL version 423,2013-10-21 03:06:00,
2013-10-20 22:11:00,51.1,37.2,29.59,SW,225,0.0,0.0,59,-99.99,,,-99.99,WSDL version 423,2013-10-21 03:11:00,
2013-10-20 22:16:00,51.1,37.6,29.59,SW,225,0.0,0.0,60,-99.99,,,-99.99,WSDL version 423,2013-10-21 03:16:00,
2013-10-20 22:21:00,50.9,37.4,29.59,SW,225,0.0,0.0,60,-99.99,,,-99.99,WSDL version 423,2013-10-21 03:21:00,
2013-10-20 22:26:00,50.9,37.4,29.59,SW,225,0.0,0.0,60,-99.99,,,-99.99,WSDL version 423,2013-10-21 03:26:00,
2013-10-20 22:31:00,51.1,37.3,29.59,SW,225,0.0,0.0,59,-99.99,,,-99.99,WSDL version 423,2013-10-21 03:31:00,
2013-10-20 22:36:00,51.1,37.2,29.59,SW,225,0.0,0.0,59,-99.99,,,-99.99,WSDL version 423,2013-10-21 03:36:00,
2013-10-20 22:41:00,51.1,37.5,29.59,SE,135,0.0,0.0,60,-99.99,,,-99.99,WSDL version 423,2013-10-21 03:41:00,
2013-10-20 22:46:00,51.1,37.6,29.59,SE,135,0.0,0.0,60,-99.99,,,-99.99,WSDL version 423,2013-10-21 03:46:00,
2013-10-20 22:51:00,51.1,37.6,29.59,SE,135,0.0,0.0,60,-99.99,,,-99.99,WSDL version 423,2013-10-21 03:51:00,
2013-10-20 22:56:00,51.1,37.6,29.59,SE,135,0.0,0.0,60,-99.99,,,-99.99,WSDL version 423,2013-10-21 03:56:00,
2013-10-20 23:01:00,51.1,37.6,29.59,SE,141,0.0,0.0,60,-99.99,,,-99.99,WSDL version 423,2013-10-21 04:01:00,
2013-10-20 23:06:00,51.1,37.6,29.59,SSE,158,0.0,0.0,60,-99.99,,,-99.99,WSDL version 423,2013-10-21 04:06:00,
2013-10-20 23:11:00,51.0,37.5,29.59,SSE,158,0.0,0.0,60,-99.99,,,-99.99,WSDL version 423,2013-10-21 04:11:00,
2013-10-20 23:16:00,50.9,37.4,29.59,SSE,158,0.0,0.0,60,-99.99,,,-99.99,WSDL version 423,2013-10-21 04:16:00,
2013-10-20 23:21:00,50.8,37.5,29.59,SSE,158,0.0,0.0,61,-99.99,,,-99.99,WSDL version 423,2013-10-21 04:21:00,
2013-10-20 23:26:00,50.7,37.6,29.59,SSE,158,0.0,0.0,61,-99.99,,,-99.99,WSDL version 423,2013-10-21 04:26:00,
2013-10-20 23:31:00,50.5,37.5,29.59,SSE,158,0.0,0.0,62,-99.99,,,-99.99,WSDL version 423,2013-10-21 04:31:00,
2013-10-20 23:36:00,50.3,37.6,29.59,SSE,158,0.0,0.0,62,-99.99,,,-99.99,WSDL version 423,2013-10-21 04:36:00,
2013-10-20 23:41:00,50.2,37.5,29.59,SSE,158,0.0,0.0,62,-99.99,,,-99.99,WSDL version 423,2013-10-21 04:41:00,
2013-10-20 23:46:00,50.1,37.6,29.59,SSE,158,0.0,0.0,62,-99.99,,,-99.99,WSDL version 423,2013-10-21 04:46:00,
2013-10-20 23:51:00,50.0,37.7,29.59,SSE,158,0.0,0.0,62,-99.99,,,-99.99,WSDL version 423,2013-10-21 04:51:00,
2013-10-20 23:56:00,50.0,37.6,29.59,SSE,152,0.0,0.0,62,-99.99,,,-99.99,WSDL version 423,2013-10-21 04:56:00,